This is the latest recevied weather packets stored in our database for station/object XE2AD-3. If no packets are shown the sender has not sent any weather packets the latest 10 day(s).
| Time | Temp. | Humidity | Pressure | Rain* | Wind** | Luminosity | Snow |
|---|---|---|---|---|---|---|---|
| 1788089217 | 23.89° C | 47% | 811.5 hPa | - | - | - | - |
| 1788088028 | 23.89° C | 47% | 811.3 hPa | - | - | - | - |
| 1788086833 | 23.89° C | 46% | 811.3 hPa | - | - | - | - |
| 1788085629 | 23.89° C | 46% | 811.3 hPa | - | - | - | - |
| 1788084841 | 24.44° C | 45% | 811.4 hPa | - | - | - | - |
| 1788084431 | 24.44° C | 45% | 811.4 hPa | - | - | - | - |
| 1788083236 | 24.44° C | 46% | 811.5 hPa | - | - | - | - |
| 1788082045 | 24.44° C | 46% | 811.4 hPa | - | - | - | - |
| 1788080842 | 24.44° C | 46% | 811.5 hPa | - | - | - | - |
| 1788079652 | 24.44° C | 46% | 811.6 hPa | - | - | - | - |
| 1788078450 | 24.44° C | 46% | 811.7 hPa | - | - | - | - |
| 1788077257 | 24.44° C | 46% | 811.9 hPa | - | - | - | - |
| 1788076053 | 25° C | 46% | 811.9 hPa | - | - | - | - |
| 1788074887 | 25° C | 45% | 812.1 hPa | - | - | - | - |
| 1788074856 | 25° C | 45% | 812.1 hPa | - | - | - | - |
| 1788073668 | 25° C | 45% | 812.2 hPa | - | - | - | - |
| 1788072465 | 25.56° C | 45% | 812.3 hPa | - | - | - | - |
| 1788071270 | 25.56° C | 44% | 812.4 hPa | - | - | - | - |
| 1788070080 | 26.11° C | 43% | 812.6 hPa | - | - | - | - |
| 1788067682 | 26.67° C | 42% | 812.5 hPa | - | - | - | - |
| 1788066488 | 27.22° C | 45% | 812.3 hPa | - | - | - | - |
| 1788066391 | 27.22° C | 45% | 812.3 hPa | - | - | - | - |
| 1788066253 | 27.22° C | 48% | 812.3 hPa | - | - | - | - |
| 1788065655 | 27.22° C | 45% | 812.2 hPa | - | - | - | - |
| 1788065573 | 27.22° C | 55% | 812.1 hPa | - | - | - | - |
* Rain since midnight (hover to see other rain measurements)
** Current wind speed in m/s (hover to see current wind gust speed)